Time,TemperatureF,DewpointF,PressureIn,WindDirection,WindDirectionDegrees,WindSpeedMPH,WindSpeedGustMPH,Humidity,HourlyPrecipIn,Conditions,Clouds,dailyrainin,SolarRadiationWatts/m^2,SoftwareType,DateUTC
2013-03-04 00:01:00,18.0,12.0,-100.00,NNE,14,10.0,21.0,76,0.00,,,0.00,0.000000,,2013-03-04 05:01:00,
2013-03-04 00:11:00,18.0,12.0,-100.00,NNE,14,10.0,21.0,76,0.00,,,0.00,0.000000,,2013-03-04 05:11:00,
2013-03-04 00:43:00,17.0,11.0,-100.00,NNE,15,11.0,22.0,78,0.00,,,0.00,0.000000,,2013-03-04 05:43:00,
2013-03-04 00:52:00,17.0,11.0,-100.00,NNE,15,11.0,22.0,78,0.00,,,0.00,0.000000,,2013-03-04 05:52:00,
2013-03-04 01:02:00,17.0,11.0,-100.00,NNE,15,11.0,22.0,78,0.00,,,0.00,0.000000,,2013-03-04 06:02:00,
2013-03-04 01:11:00,17.0,11.0,-100.00,NNE,15,11.0,22.0,78,0.00,,,0.00,0.000000,,2013-03-04 06:11:00,
2013-03-04 01:32:00,17.0,12.0,-100.00,NNE,22,13.0,24.0,80,0.00,,,0.00,0.000000,,2013-03-04 06:32:00,
2013-03-04 01:42:00,17.0,12.0,-100.00,NNE,22,13.0,24.0,80,0.00,,,0.00,0.000000,,2013-03-04 06:42:00,
2013-03-04 01:52:00,17.0,12.0,-100.00,NNE,22,13.0,24.0,80,0.00,,,0.00,0.000000,,2013-03-04 06:52:00,
2013-03-04 02:02:00,17.0,12.0,-100.00,NNE,22,13.0,24.0,80,0.00,,,0.00,0.000000,,2013-03-04 07:02:00,
2013-03-04 02:11:00,17.0,12.0,-100.00,NNE,22,13.0,24.0,80,0.00,,,0.00,0.000000,,2013-03-04 07:11:00,
2013-03-04 02:32:00,17.0,12.0,-100.00,NNE,32,13.0,24.0,80,0.00,,,0.00,0.000000,,2013-03-04 07:32:00,
2013-03-04 02:42:00,17.0,12.0,-100.00,NNE,32,13.0,24.0,80,0.00,,,0.00,0.000000,,2013-03-04 07:42:00,
2013-03-04 02:52:00,17.0,12.0,-100.00,NNE,32,13.0,24.0,80,0.00,,,0.00,0.000000,,2013-03-04 07:52:00,
2013-03-04 03:02:00,17.0,12.0,-100.00,NNE,32,13.0,24.0,80,0.00,,,0.00,0.000000,,2013-03-04 08:02:00,
2013-03-04 03:12:00,17.0,12.0,-100.00,NNE,32,13.0,24.0,80,0.00,,,0.00,0.000000,,2013-03-04 08:12:00,
2013-03-04 03:42:00,17.0,11.0,-100.00,NNE,33,13.0,24.0,78,0.00,,,0.00,0.000000,,2013-03-04 08:42:00,
2013-03-04 03:52:00,17.0,11.0,-100.00,NNE,33,13.0,24.0,78,0.00,,,0.00,0.000000,,2013-03-04 08:52:00,
2013-03-04 04:02:00,17.0,11.0,-100.00,NNE,33,13.0,24.0,78,0.00,,,0.00,0.000000,,2013-03-04 09:02:00,
2013-03-04 04:11:00,17.0,11.0,-100.00,NNE,33,13.0,24.0,78,0.00,,,0.00,0.000000,,2013-03-04 09:11:00,
2013-03-04 04:32:00,16.0,9.0,-100.00,NNE,33,12.0,30.0,74,0.00,,,0.00,0.000000,,2013-03-04 09:32:00,
2013-03-04 04:42:00,16.0,9.0,-100.00,NNE,33,12.0,30.0,74,0.00,,,0.00,0.000000,,2013-03-04 09:42:00,
2013-03-04 04:52:00,16.0,9.0,-100.00,NNE,33,12.0,30.0,74,0.00,,,0.00,0.000000,,2013-03-04 09:52:00,
2013-03-04 05:01:00,16.0,9.0,-100.00,NNE,33,12.0,30.0,74,0.00,,,0.00,0.000000,,2013-03-04 10:01:00,
2013-03-04 05:12:00,16.0,9.0,-100.00,NNE,33,12.0,30.0,74,0.00,,,0.00,0.000000,,2013-03-04 10:12:00,
2013-03-04 05:32:00,16.0,10.0,-100.00,NE,38,11.0,25.0,78,0.00,,,0.00,0.000000,,2013-03-04 10:32:00,
2013-03-04 05:42:00,16.0,10.0,-100.00,NE,38,11.0,25.0,78,0.00,,,0.00,0.000000,,2013-03-04 10:42:00,
2013-03-04 05:52:00,16.0,10.0,-100.00,NE,38,11.0,25.0,78,0.00,,,0.00,0.000000,,2013-03-04 10:52:00,
2013-03-04 06:02:00,16.0,10.0,-100.00,NE,38,11.0,25.0,78,0.00,,,0.00,0.000000,,2013-03-04 11:02:00,
2013-03-04 06:11:00,16.0,10.0,-100.00,NE,38,11.0,25.0,78,0.00,,,0.00,0.000000,,2013-03-04 11:11:00,
2013-03-04 06:32:00,16.0,11.0,-100.00,NNE,32,11.0,22.0,81,0.00,,,0.00,0.000000,,2013-03-04 11:32:00,
2013-03-04 06:42:00,16.0,11.0,-100.00,NNE,32,11.0,22.0,81,0.00,,,0.00,0.000000,,2013-03-04 11:42:00,
2013-03-04 06:52:00,16.0,11.0,-100.00,NNE,32,11.0,22.0,81,0.00,,,0.00,0.000000,,2013-03-04 11:52:00,
2013-03-04 07:02:00,16.0,11.0,-100.00,NNE,32,11.0,22.0,81,0.00,,,0.00,0.000000,,2013-03-04 12:02:00,
2013-03-04 07:11:00,16.0,11.0,-100.00,NNE,32,11.0,22.0,81,0.00,,,0.00,0.000000,,2013-03-04 12:11:00,
2013-03-04 07:32:00,16.0,12.0,-100.00,NE,34,12.0,24.0,83,0.00,,,0.00,8.000000,,2013-03-04 12:32:00,
2013-03-04 07:43:00,16.0,12.0,-100.00,NE,34,12.0,24.0,83,0.00,,,0.00,8.000000,,2013-03-04 12:43:00,
2013-03-04 08:02:00,16.0,12.0,-100.00,NE,34,12.0,24.0,83,0.00,,,0.00,8.000000,,2013-03-04 13:02:00,
2013-03-04 08:11:00,16.0,12.0,-100.00,NE,34,12.0,24.0,83,0.00,,,0.00,8.000000,,2013-03-04 13:11:00,
2013-03-04 08:42:00,17.0,12.0,-100.00,NNE,25,14.0,23.0,81,0.00,,,0.00,48.000000,,2013-03-04 13:42:00,
2013-03-04 08:52:00,17.0,12.0,-100.00,NNE,25,14.0,23.0,81,0.00,,,0.00,48.000000,,2013-03-04 13:52:00,
2013-03-04 09:01:00,17.0,12.0,-100.00,NNE,25,14.0,23.0,81,0.00,,,0.00,48.000000,,2013-03-04 14:01:00,
2013-03-04 09:12:00,17.0,12.0,-100.00,NNE,25,14.0,23.0,81,0.00,,,0.00,48.000000,,2013-03-04 14:12:00,
2013-03-04 09:42:00,19.0,13.0,-100.00,NNE,29,12.0,23.0,78,0.00,,,0.00,129.000000,,2013-03-04 14:42:00,
2013-03-04 09:52:00,19.0,13.0,-100.00,NNE,29,12.0,23.0,78,0.00,,,0.00,129.000000,,2013-03-04 14:52:00,
2013-03-04 10:02:00,19.0,13.0,-100.00,NNE,29,12.0,23.0,78,0.00,,,0.00,129.000000,,2013-03-04 15:02:00,
2013-03-04 10:11:00,19.0,13.0,-100.00,NNE,29,12.0,23.0,78,0.00,,,0.00,129.000000,,2013-03-04 15:11:00,
2013-03-04 10:42:00,20.0,13.0,-100.00,NE,35,12.0,24.0,73,0.00,,,0.00,211.000000,,2013-03-04 15:42:00,
2013-03-04 10:52:00,20.0,13.0,-100.00,NE,35,12.0,24.0,73,0.00,,,0.00,211.000000,,2013-03-04 15:52:00,
2013-03-04 11:03:00,20.0,13.0,-100.00,NE,35,12.0,24.0,73,0.00,,,0.00,211.000000,,2013-03-04 16:03:00,
2013-03-04 11:11:00,20.0,13.0,-100.00,NE,35,12.0,24.0,73,0.00,,,0.00,211.000000,,2013-03-04 16:11:00,
2013-03-04 11:42:00,23.0,15.0,-100.00,North,11,12.0,23.0,70,0.00,,,0.00,261.000000,,2013-03-04 16:42:00,
2013-03-04 11:52:00,23.0,15.0,-100.00,North,11,12.0,23.0,70,0.00,,,0.00,261.000000,,2013-03-04 16:52:00,
2013-03-04 12:02:00,23.0,15.0,-100.00,North,11,12.0,23.0,70,0.00,,,0.00,261.000000,,2013-03-04 17:02:00,
2013-03-04 12:11:00,23.0,15.0,-100.00,North,11,12.0,23.0,70,0.00,,,0.00,261.000000,,2013-03-04 17:11:00,
2013-03-04 12:42:00,24.0,15.0,-100.00,NNE,12,11.0,22.0,68,0.00,,,0.00,308.000000,,2013-03-04 17:42:00,
2013-03-04 12:52:00,24.0,15.0,-100.00,NNE,12,11.0,22.0,68,0.00,,,0.00,308.000000,,2013-03-04 17:52:00,
2013-03-04 13:02:00,24.0,15.0,-100.00,NNE,12,11.0,22.0,68,0.00,,,0.00,308.000000,,2013-03-04 18:02:00,
2013-03-04 13:11:00,24.0,15.0,-100.00,NNE,12,11.0,22.0,68,0.00,,,0.00,308.000000,,2013-03-04 18:11:00,
2013-03-04 13:42:00,24.0,16.0,-100.00,NNE,22,11.0,26.0,72,0.00,,,0.00,261.000000,,2013-03-04 18:42:00,
2013-03-04 13:52:00,24.0,16.0,-100.00,NNE,22,11.0,26.0,72,0.00,,,0.00,261.000000,,2013-03-04 18:52:00,
2013-03-04 14:02:00,24.0,16.0,-100.00,NNE,22,11.0,26.0,72,0.00,,,0.00,261.000000,,2013-03-04 19:02:00,
2013-03-04 14:12:00,24.0,16.0,-100.00,NNE,22,11.0,26.0,72,0.00,,,0.00,261.000000,,2013-03-04 19:12:00,
2013-03-04 14:42:00,23.0,16.0,-100.00,SE,143,11.0,24.0,73,0.00,,,0.00,228.000000,,2013-03-04 19:42:00,
2013-03-04 14:52:00,23.0,16.0,-100.00,SE,143,11.0,24.0,73,0.00,,,0.00,228.000000,,2013-03-04 19:52:00,
2013-03-04 15:02:00,23.0,16.0,-100.00,SE,143,11.0,24.0,73,0.00,,,0.00,228.000000,,2013-03-04 20:02:00,
2013-03-04 15:12:00,23.0,16.0,-100.00,SE,143,11.0,24.0,73,0.00,,,0.00,228.000000,,2013-03-04 20:12:00,
2013-03-04 15:42:00,23.0,16.0,-100.00,ESE,103,12.0,24.0,75,0.00,,,0.00,172.000000,,2013-03-04 20:42:00,
2013-03-04 15:53:00,23.0,16.0,-100.00,ESE,103,12.0,24.0,75,0.00,,,0.00,172.000000,,2013-03-04 20:53:00,
2013-03-04 16:02:00,23.0,16.0,-100.00,ESE,103,12.0,24.0,75,0.00,,,0.00,172.000000,,2013-03-04 21:02:00,
2013-03-04 16:12:00,23.0,16.0,-100.00,ESE,103,12.0,24.0,75,0.00,,,0.00,172.000000,,2013-03-04 21:12:00,
2013-03-04 16:32:00,22.0,16.0,-100.00,ESE,113,13.0,25.0,77,0.00,,,0.00,115.000000,,2013-03-04 21:32:00,
2013-03-04 16:43:00,22.0,16.0,-100.00,ESE,113,13.0,25.0,77,0.00,,,0.00,115.000000,,2013-03-04 21:43:00,
2013-03-04 16:53:00,22.0,16.0,-100.00,ESE,113,13.0,25.0,77,0.00,,,0.00,115.000000,,2013-03-04 21:53:00,
2013-03-04 17:02:00,22.0,16.0,-100.00,ESE,113,13.0,25.0,77,0.00,,,0.00,115.000000,,2013-03-04 22:02:00,
2013-03-04 17:12:00,22.0,16.0,-100.00,ESE,113,13.0,25.0,77,0.00,,,0.00,115.000000,,2013-03-04 22:12:00,
2013-03-04 17:43:00,21.0,16.0,-100.00,North,2,11.0,23.0,80,0.00,,,0.00,52.000000,,2013-03-04 22:43:00,
2013-03-04 17:52:00,21.0,16.0,-100.00,North,2,11.0,23.0,80,0.00,,,0.00,52.000000,,2013-03-04 22:52:00,
2013-03-04 18:02:00,21.0,16.0,-100.00,North,2,11.0,23.0,80,0.00,,,0.00,52.000000,,2013-03-04 23:02:00,
2013-03-04 18:11:00,21.0,16.0,-100.00,North,2,11.0,23.0,80,0.00,,,0.00,52.000000,,2013-03-04 23:11:00,
2013-03-04 18:32:00,21.0,16.0,-100.00,North,2,9.0,22.0,82,0.00,,,0.00,11.000000,,2013-03-04 23:32:00,
2013-03-04 18:42:00,21.0,16.0,-100.00,North,2,9.0,22.0,82,0.00,,,0.00,11.000000,,2013-03-04 23:42:00,
2013-03-04 18:52:00,21.0,16.0,-100.00,North,2,9.0,22.0,82,0.00,,,0.00,11.000000,,2013-03-04 23:52:00,
2013-03-04 19:02:00,21.0,16.0,-100.00,North,2,9.0,22.0,82,0.00,,,0.00,11.000000,,2013-03-05 00:02:00,
2013-03-04 19:12:00,21.0,16.0,-100.00,North,2,9.0,22.0,82,0.00,,,0.00,11.000000,,2013-03-05 00:12:00,
2013-03-04 19:42:00,20.0,16.0,-100.00,NNE,20,10.0,19.0,83,0.00,,,0.00,0.000000,,2013-03-05 00:42:00,
2013-03-04 19:52:00,20.0,16.0,-100.00,NNE,20,10.0,19.0,83,0.00,,,0.00,0.000000,,2013-03-05 00:52:00,
2013-03-04 20:02:00,20.0,16.0,-100.00,NNE,20,10.0,19.0,83,0.00,,,0.00,0.000000,,2013-03-05 01:02:00,
2013-03-04 20:12:00,20.0,16.0,-100.00,NNE,20,10.0,19.0,83,0.00,,,0.00,0.000000,,2013-03-05 01:12:00,
2013-03-04 20:42:00,20.0,16.0,-100.00,NNE,27,11.0,20.0,83,0.00,,,0.00,0.000000,,2013-03-05 01:42:00,
2013-03-04 20:52:00,20.0,16.0,-100.00,NNE,27,11.0,20.0,83,0.00,,,0.00,0.000000,,2013-03-05 01:52:00,
2013-03-04 21:02:00,20.0,16.0,-100.00,NNE,27,11.0,20.0,83,0.00,,,0.00,0.000000,,2013-03-05 02:02:00,
2013-03-04 21:12:00,20.0,16.0,-100.00,NNE,27,11.0,20.0,83,0.00,,,0.00,0.000000,,2013-03-05 02:12:00,
2013-03-04 21:42:00,20.0,16.0,-100.00,NNE,23,9.0,24.0,83,0.00,,,0.00,0.000000,,2013-03-05 02:42:00,
2013-03-04 21:53:00,20.0,16.0,-100.00,NNE,23,9.0,24.0,83,0.00,,,0.00,0.000000,,2013-03-05 02:53:00,
2013-03-04 22:02:00,20.0,16.0,-100.00,NNE,23,9.0,24.0,83,0.00,,,0.00,0.000000,,2013-03-05 03:02:00,
2013-03-04 22:12:00,20.0,16.0,-100.00,NNE,23,9.0,24.0,83,0.00,,,0.00,0.000000,,2013-03-05 03:12:00,
2013-03-04 22:32:00,19.0,15.0,-100.00,NNE,21,9.0,18.0,83,0.00,,,0.00,0.000000,,2013-03-05 03:32:00,
2013-03-04 22:42:00,19.0,15.0,-100.00,NNE,21,9.0,18.0,83,0.00,,,0.00,0.000000,,2013-03-05 03:42:00,
2013-03-04 22:52:00,19.0,15.0,-100.00,NNE,21,9.0,18.0,83,0.00,,,0.00,0.000000,,2013-03-05 03:52:00,
2013-03-04 23:02:00,19.0,15.0,-100.00,NNE,21,9.0,18.0,83,0.00,,,0.00,0.000000,,2013-03-05 04:02:00,
2013-03-04 23:12:00,19.0,15.0,-100.00,NNE,21,9.0,18.0,83,0.00,,,0.00,0.000000,,2013-03-05 04:12:00,
2013-03-04 23:32:00,19.0,15.0,-100.00,NE,46,7.0,15.0,84,0.00,,,0.00,0.000000,,2013-03-05 04:32:00,
2013-03-04 23:42:00,19.0,15.0,-100.00,NE,46,7.0,15.0,84,0.00,,,0.00,0.000000,,2013-03-05 04:42:00,
2013-03-04 23:52:00,19.0,15.0,-100.00,NE,46,7.0,15.0,84,0.00,,,0.00,0.000000,,2013-03-05 04:52:00,